Weather reports worldwide

Advertisment
South Uist Range, United Kingdom (3023): temperature & dewpoint: 20.05.2020 13:00:00 - 26.05.2020 13:00:00 (BST)South Uist Range, United Kingdom (3023): temperature -20cm & temperature -100cm: 20.05.2020 13:00:00 - 26.05.2020 13:00:00 (BST)South Uist Range, United Kingdom (3023): wind speed & gusts: 20.05.2020 13:00:00 - 26.05.2020 13:00:00 (BST)South Uist Range, United Kingdom (3023): wind direction: 20.05.2020 13:00:00 - 26.05.2020 13:00:00 (BST)South Uist Range, United Kingdom (3023): reduced air pressure: 20.05.2020 13:00:00 - 26.05.2020 13:00:00 (BST)South Uist Range, United Kingdom (3023): visibility: 20.05.2020 13:00:00 - 26.05.2020 13:00:00 (BST)South Uist Range, United Kingdom (3023): precipitation: 20.05.2020 13:00:00 - 26.05.2020 13:00:00 (BST)
Date & Time tt [°C] td [°C] tt -20cm [°C] tt -100cm [°C] ff [km/h] ff [kn] fx [km/h] fx [kn] dd ppp [hPa] vv [km] rr [mm]
26.05.2020 13:00:00 - - - - - - - - - - - -
26.05.2020 12:00:00 - - - - - - - - - - - -
26.05.2020 11:00:00 - - - - - - - - - - - -
26.05.2020 10:00:00 - - - - - - - - - - - -
26.05.2020 09:00:00 - - - - - - - - - - - -
26.05.2020 08:00:00 - - - - - - - - - - - -
26.05.2020 07:00:00 - - - - - - - - - - - -
26.05.2020 06:00:00 - - - - - - - - - - - -
26.05.2020 05:00:00 - - - - - - - - - - - -
26.05.2020 04:00:00 - - - - - - - - - - - -
26.05.2020 03:00:00 - - - - - - - - - - - -
26.05.2020 02:00:00 - - - - - - - - - - - -
26.05.2020 01:00:00 - - - - - - - - - - - -
26.05.2020 00:00:00 - - - - - - - - - - - -
25.05.2020 23:00:00 - - - - - - - - - - - -
25.05.2020 22:00:00 - - - - - - - - - - - -
25.05.2020 21:00:00 - - - - - - - - - - - -
25.05.2020 20:00:00 - - - - - - - - - - - -
25.05.2020 19:00:00 - - - - - - - - - - - -
25.05.2020 18:00:00 - - - - - - - - - - - -
25.05.2020 17:00:00 - - - - - - - - - - - -
25.05.2020 16:00:00 - - - - - - - - - - - -
25.05.2020 15:00:00 - - - - - - - - - - - -
25.05.2020 14:00:00 - - - - - - - - - - - -
25.05.2020 13:00:00 - - - - - - - - - - - -
25.05.2020 12:00:00 - - - - - - - - - - - -
25.05.2020 11:00:00 - - - - - - - - - - - -
25.05.2020 10:00:00 - - - - - - - - - - - -
25.05.2020 09:00:00 - - - - - - - - - - - -
25.05.2020 08:00:00 - - - - - - - - - - - -
25.05.2020 07:00:00 - - - - - - - - - - - -
25.05.2020 06:00:00 - - - - - - - - - - - -
25.05.2020 05:00:00 - - - - - - - - - - - -
25.05.2020 04:00:00 - - - - - - - - - - - -
25.05.2020 03:00:00 11,0 9,9 - - 39 21 57 31 SSW 1026,8 14 0,0
25.05.2020 02:00:00 10,9 9,6 - - 37 20 50 27 SSW 1026,8 16 0,0
25.05.2020 01:00:00 11,2 9,5 - - 35 19 48 26 SSW 1027,2 18 0,0
25.05.2020 00:00:00 11,0 9,8 - - 34 18 - - SSW 1026,9 15 0,0
24.05.2020 23:00:00 11,3 10,2 - - 34 18 46 25 SSW 1027,3 12 0,0
24.05.2020 22:00:00 11,2 10,2 - - 31 17 - - S 1027,0 9 0,0
24.05.2020 21:00:00 11,3 10,3 - - 29 16 - - SSW 1026,9 9 0,0
24.05.2020 20:00:00 11,5 10,2 - - 34 18 - - SSW 1026,5 10 0,0
24.05.2020 19:00:00 12,4 10,8 - - 35 19 46 25 SSW 1025,9 10 0,0
24.05.2020 18:00:00 12,4 10,8 - - 35 19 46 25 SSW 1025,7 10 0,0
24.05.2020 17:00:00 12,5 10,8 - - 35 19 - - SSW 1025,6 11 0,0
24.05.2020 16:00:00 12,7 10,9 - - 34 18 - - SW 1025,4 10 0,0
24.05.2020 15:00:00 12,8 11,0 - - 34 18 - - SW 1025,1 10 0,0
24.05.2020 14:00:00 12,1 10,9 - - 35 19 46 25 SW 1024,3 8 0,0
24.05.2020 13:00:00 12,2 11,0 - - 31 17 - - WSW 1023,2 7 0,0
24.05.2020 12:00:00 12,2 11,0 - - 35 19 - - WSW 1022,2 8 0,0
24.05.2020 11:00:00 11,8 11,1 - - 31 17 46 25 WSW 1021,2 5 0,0
24.05.2020 10:00:00 11,6 11,0 11,7 9,9 35 19 46 25 WSW 1020,2 4,5 0,0
24.05.2020 09:00:00 11,4 11,1 - - 34 18 46 25 WSW 1019,2 3,6 0,0
24.05.2020 08:00:00 11,1 10,9 - - 34 18 46 25 WSW 1018,4 1,4 0,0
24.05.2020 07:00:00 11,1 10,8 - - 35 19 46 25 WSW 1017,5 3,7 0,2
24.05.2020 06:00:00 10,8 10,5 - - 31 17 - - WSW 1016,5 2,3 0,6
24.05.2020 05:00:00 10,8 10,2 - - 26 14 - - WSW 1015,9 5 0,0
24.05.2020 04:00:00 10,7 9,6 - - 24 13 - - WSW 1015,2 12 0,0
24.05.2020 03:00:00 10,7 9,4 - - 28 15 - - W 1014,5 17 0,0
24.05.2020 02:00:00 10,1 8,6 - - 26 14 - - WSW 1014,0 11 0,0
24.05.2020 01:00:00 10,3 8,1 - - 35 19 57 31 W 1013,3 13 0,0
24.05.2020 00:00:00 10,7 8,1 - - 41 22 57 31 W 1012,7 14 0,0
23.05.2020 23:00:00 10,7 8,3 - - 42 23 57 31 W 1011,8 13 0,0
23.05.2020 22:00:00 10,9 8,6 - - 44 24 68 37 W 1010,8 12 0,0
23.05.2020 21:00:00 11,1 8,4 - - 52 28 70 38 W 1009,7 13 0,0
23.05.2020 20:00:00 11,2 8,5 - - 52 28 68 37 W 1008,6 13 0,0
23.05.2020 19:00:00 11,2 8,7 - - 52 28 70 38 W 1007,6 11 0,0
23.05.2020 18:00:00 11,5 8,7 - - 52 28 67 36 W 1006,3 13 0,0
23.05.2020 17:00:00 11,4 8,8 - - 50 27 78 42 W 1005,1 13 0,0
23.05.2020 16:00:00 10,5 8,6 - - 54 29 80 43 W 1003,6 19 0,0
23.05.2020 15:00:00 10,2 8,6 - - 55 30 72 39 W 1002,1 15 0,2
23.05.2020 14:00:00 11,1 9,4 - - 55 30 74 40 W 1000,6 16 0,4
23.05.2020 13:00:00 11,5 9,4 - - 50 27 67 36 WSW 999,5 17 0,0
23.05.2020 12:00:00 11,5 9,5 - - 52 28 67 36 WSW 998,4 14 0,0
23.05.2020 11:00:00 10,8 9,5 - - 46 25 57 31 W 996,7 10 0,2
23.05.2020 10:00:00 10,8 10,0 11,7 9,9 44 24 65 35 WSW 994,6 15 0,0
23.05.2020 09:00:00 10,8 9,4 - - 50 27 65 35 WSW 993,4 12 0,2
23.05.2020 08:00:00 10,6 9,7 - - 50 27 70 38 WSW 992,5 6 0,2
23.05.2020 07:00:00 10,7 9,5 - - 54 29 72 39 SW 991,4 3,3 0,0
23.05.2020 06:00:00 10,7 9,2 - - 52 28 65 35 WSW 991,1 16 0,2
23.05.2020 05:00:00 10,4 9,6 - - 44 24 67 36 WSW 990,3 9 0,6
23.05.2020 04:00:00 9,5 8,9 - - 59 32 91 49 SW 989,5 5 1,0
23.05.2020 03:00:00 9,2 8,3 - - 74 40 100 54 SSW 989,4 2,3 0,4
23.05.2020 02:00:00 9,9 7,8 - - 76 41 98 53 SW 989,9 5 0,4
23.05.2020 01:00:00 10,0 8,1 - - 76 41 100 54 SW 989,8 4,3 0,6
23.05.2020 00:00:00 10,2 8,7 - - 76 41 107 58 SSW 989,4 2,5 1,2
22.05.2020 23:00:00 10,5 8,8 - - 72 39 96 52 SSW 989,3 3,7 0,4
22.05.2020 22:00:00 10,6 9,1 - - 72 39 106 57 SSW 988,6 4,2 0,0
22.05.2020 21:00:00 10,7 9,3 - - 76 41 102 55 SSW 987,7 3,5 0,4
22.05.2020 20:00:00 10,7 9,5 - - 76 41 98 53 SSW 986,7 5 0,0
22.05.2020 19:00:00 11,1 9,6 - - 76 41 100 54 SSW 986,6 6 0,4
22.05.2020 18:00:00 10,6 9,7 - - 72 39 98 53 SSW 986,3 1,5 0,0
22.05.2020 17:00:00 11,1 9,5 - - 72 39 94 51 SSW 986,1 3,0 0,0
22.05.2020 16:00:00 11,3 9,8 - - 74 40 94 51 SSW 985,9 6 0,2
22.05.2020 15:00:00 11,1 10,0 - - 70 38 89 48 S 985,9 3,2 0,6
22.05.2020 14:00:00 10,5 9,7 - - 63 34 83 45 S 986,4 4,4 0,4
22.05.2020 13:00:00 11,1 10,5 - - 54 29 89 48 S 987,2 10 1,0
22.05.2020 12:00:00 10,9 10,2 - - 59 32 83 45 S 987,4 3,8 0,2
22.05.2020 11:00:00 10,6 9,8 - - 55 30 81 44 SSE 988,0 11 0,8
22.05.2020 10:00:00 10,6 8,9 12,4 9,7 48 26 70 38 SSE 989,2 10 0,2
22.05.2020 09:00:00 12,5 9,9 - - 44 24 63 34 S 990,1 16 0,0
22.05.2020 08:00:00 11,8 10,2 - - 41 22 59 32 S 990,8 35 0,6
22.05.2020 07:00:00 11,0 9,6 - - 37 20 68 37 SSE 992,0 30 0,8
22.05.2020 06:00:00 11,0 9,4 - - 54 29 91 49 SE 992,2 4,3 4,4
22.05.2020 05:00:00 11,4 9,4 - - 59 32 83 45 SE 994,8 3,9 6,0
22.05.2020 04:00:00 11,6 9,3 - - 57 31 80 43 SE 997,1 4,9 3,2
22.05.2020 03:00:00 11,3 8,7 - - 44 24 67 36 ESE 999,2 8 1,0
22.05.2020 02:00:00 13,0 7,1 - - 50 27 78 42 SE 1002,4 10 0,0
22.05.2020 01:00:00 12,2 8,7 - - 35 19 - - E 1004,3 75 0,0
22.05.2020 00:00:00 11,0 8,9 - - 28 15 - - ESE 1006,5 70 0,0
21.05.2020 23:00:00 11,7 7,9 - - 11 6 - - ENE 1009,2 75 0,0
21.05.2020 22:00:00 11,1 8,8 - - 28 15 - - ESE 1010,7 70 0,0
21.05.2020 21:00:00 11,2 8,9 - - 22 12 - - E 1011,9 70 0,0
21.05.2020 20:00:00 11,5 8,5 - - 16 9 - - ESE 1013,0 65 0,0
21.05.2020 19:00:00 12,2 7,6 - - 21 11 - - ESE 1013,8 65 0,0
21.05.2020 18:00:00 12,8 10,0 - - 16 9 - - SSW 1015,2 30 0,0
21.05.2020 17:00:00 13,1 10,2 - - 22 12 - - SW 1016,3 40 0,0
21.05.2020 16:00:00 13,1 10,5 - - 22 12 - - SW 1017,2 35 0,0
21.05.2020 15:00:00 13,1 10,0 - - 16 9 - - SW 1017,5 40 0,0
21.05.2020 14:00:00 13,4 10,6 - - 18 10 - - SW 1017,8 60 0,0
21.05.2020 13:00:00 12,9 10,2 - - 18 10 - - SW 1017,7 65 0,0
21.05.2020 12:00:00 12,5 9,8 - - 15 8 - - SW 1017,2 75 0,0
21.05.2020 11:00:00 12,1 9,8 - - 16 9 - - WSW 1017,3 70 0,0
21.05.2020 10:00:00 11,2 9,8 11,9 9,7 18 10 - - W 1016,8 40 0,0
21.05.2020 09:00:00 10,7 9,6 - - 22 12 - - W 1016,1 40 0,2
21.05.2020 08:00:00 10,6 9,8 - - 21 11 - - W 1015,4 30 0,0
21.05.2020 07:00:00 10,6 10,2 - - 22 12 - - WNW 1014,4 26 0,0
21.05.2020 06:00:00 11,0 10,7 - - 18 10 - - SW 1013,5 6 0,2
21.05.2020 05:00:00 11,4 11,0 - - 21 11 - - SSW 1013,4 1,6 0,2
21.05.2020 04:00:00 11,2 10,1 - - 18 10 - - S 1013,3 18 0,2
21.05.2020 03:00:00 12,0 9,5 - - 21 11 - - S 1013,4 30 0,0
21.05.2020 02:00:00 12,0 9,5 - - 18 10 - - S 1013,5 30 0,0
21.05.2020 01:00:00 11,0 9,7 - - 16 9 - - S 1013,5 19 0,0
21.05.2020 00:00:00 11,4 9,5 - - 28 15 - - S 1013,4 24 0,0
20.05.2020 23:00:00 12,0 9,4 - - 28 15 - - S 1013,5 30 0,0
20.05.2020 22:00:00 13,0 9,6 - - 31 17 - - S 1013,1 30 0,0
20.05.2020 21:00:00 13,1 9,9 - - 24 13 - - S 1013,2 35 0,0
20.05.2020 20:00:00 13,3 10,4 - - 34 18 50 27 S 1013,4 35 0,0
20.05.2020 19:00:00 13,8 10,9 - - 39 21 52 28 S 1013,5 30 0,0
20.05.2020 18:00:00 14,0 11,0 - - 37 20 59 32 S 1013,5 30 0,0
20.05.2020 17:00:00 14,0 11,1 - - 39 21 52 28 S 1013,8 30 0,0
20.05.2020 16:00:00 14,3 11,0 - - 41 22 63 34 S 1014,0 35 0,0
20.05.2020 15:00:00 14,7 11,0 - - 44 24 61 33 S 1014,5 40 0,0
20.05.2020 14:00:00 14,5 11,9 - - 50 27 67 36 S 1014,8 30 0,0
20.05.2020 13:00:00 14,0 11,2 - - 46 25 63 34 SSE 1015,3 30 0,0

tt = temperature
td = dewpoint
tt -20cm = temperature -20cm
tt -100cm = temperature -100cm
ff = wind speed
fx = gusts
dd = wind direction
ppp = reduced air pressure
vv = visibility
rr = precipitation

Next stations